User: anonymous   Login
Location: Nashville
(36.1660°N, 86.7840°W)
Time: 13:44:13
(UTC-06:00)
Language:

Explorer 7 - Orbit

View from above orbital plane
View from above orbital plane
View from above satellite
View from above satellite

Ground track
Ground track

The orbit data is extracted from the following two-line orbital elements,

1 00022U 59009A   22024.84357219  .00000578  00000-0  64817-4 0  9996
2 00022  50.2824 229.1519 0137103 340.4278  19.1436 14.96088981558128
Epoch (UTC): 24 January 2022 20:14:44
Eccentricity: 0.0137103
inclination: 50.2824°
perigee height: 483 km
apogee height: 674 km
right ascension of ascending node: 229.1519°
argument of perigee: 340.4278°
revolutions per day: 14.96088981
mean anomaly at epoch: 19.1436°
orbit number at epoch: 55812

The dashed part of the orbit path shows where the satellite is in the earth's shadow,  

DLR